DW5846 Weather Reports


time (UTC)temp
C
wind
direction
speed
KPH
gust
KPH
rain 1hr
cm
rain 24hr
cm
rain mn
cm
humidity
%
barometer
mb
20260507103013 6 241 3.2 9.7 0.00 0.00 0.00 76 1011.4
20260507101511 6 260 3.2 8.0 0.00 0.00 0.00 76 1011.4
20260507100016 6 245 3.2 8.0 0.00 0.00 0.00 76 1011.5
20260507094508 6 238 3.2 12.9 0.00 0.00 0.00 75 1011.7
20260507093007 7 253 1.6 8.0 0.00 0.00 0.00 75 1011.9
20260507091504 7 247 3.2 8.0 0.00 0.00 0.00 74 1012.0
20260507090004 7 263 3.2 6.4 0.00 0.00 0.00 74 1012.1
20260507084601 7 259 3.2 8.0 0.00 0.00 0.00 73 1012.3
20260507083103 7 257 3.2 12.9 0.00 0.00 0.00 71 1012.5
20260507081556 7 249 1.6 8.0 0.00 0.00 0.00 71 1012.6
20260507080119 7 264 3.2 8.0 0.00 0.00 0.00 70 1012.8
20260507074601 6 259 1.6 4.8 0.00 0.00 0.00 69 1012.8
20260507073059 6 262 1.6 4.8 0.00 0.00 0.00 67 1013.0
20260507071600 6 257 1.6 4.8 0.00 0.00 0.00 64 1013.3
20260507070046 6 256 0.0 3.2 0.00 0.00 0.00 63 1013.4
20260507064550 7 256 0.0 3.2 0.00 0.00 0.00 61 1013.6
20260507063042 7 251 0.0 3.2 0.00 0.00 0.00 59 1013.8
20260507061541 7 259 0.0 4.8 0.00 0.00 0.00 55 1013.9
20260507060039 8 246 1.6 3.2 0.00 0.00 0.00 54 1014.0
20260507054548 8 250 1.6 3.2 0.00 0.00 0.00 53 1013.9
20260507053045 8 252 1.6 6.4 0.00 0.00 0.00 51 1013.9
20260507051533 7 243 1.6 6.4 0.00 0.00 0.00 54 1013.9
20260507050030 3 260 0.0 3.2 0.00 0.00 0.00 69 1014.0
20260507044529 2 237 0.0 0.0 0.00 0.00 0.00 77 1014.2
20260507043035 2 237 0.0 1.6 0.00 0.00 0.00 76 1014.1
20260507041527 1 236 0.0 0.0 0.00 0.00 0.00 74 1014.2
20260507040026 2 236 0.0 0.0 0.00 0.00 0.00 73 1014.3
20260507034526 2 236 0.0 0.0 0.00 0.00 0.00 71 1014.3
20260507033026 2 236 0.0 0.0 0.00 0.00 0.00 69 1014.5
20260507031525 3 236 0.0 0.0 0.00 0.00 0.00 67 1014.5
20260507030025 4 236 0.0 0.0 0.00 0.00 0.00 66 1014.5
20260507024524 5 236 0.0 0.0 0.00 0.00 0.00 63 1014.4
20260507023028 5 236 0.0 0.0 0.00 0.00 0.00 57 1014.3
20260507021523 6 236 0.0 0.0 0.00 0.00 0.00 54 1014.2
20260507020025 7 236 0.0 0.0 0.00 0.00 0.00 50 1014.0
20260507014522 9 236 0.0 0.0 0.00 0.00 0.00 49 1014.0
20260507013033 10 236 0.0 0.0 0.00 0.00 0.00 47 1014.0
20260507011534 12 236 0.0 0.0 0.00 0.00 0.00 38 1013.9
20260507010021 13 236 0.0 1.6 0.00 0.00 0.00 32 1014.0
20260507004521 14 241 0.0 4.8 0.00 0.00 0.00 29 1014.0
20260507003020 14 328 0.0 6.4 0.00 0.00 0.00 30 1014.1
20260507001520 15 299 0.0 9.7 0.00 0.00 0.00 30 1014.1
20260507000019 15 20 1.6 6.4 0.00 0.00 0.00 29 1014.2
20260506234521 15 296 1.6 11.3 0.00 0.00 0.00 29 1014.4
20260506233018 15 326 1.6 11.3 0.00 0.00 0.00 28 1014.4
20260506231517 16 254 1.6 8.0 0.00 0.00 0.00 30 1014.5
20260506230017 16 245 1.6 14.5 0.00 0.00 0.00 29 1014.6
20260506224524 16 289 4.8 17.7 0.00 0.00 0.00 27 1014.7
20260506223016 16 249 3.2 19.3 0.00 0.00 0.00 29 1014.7
20260506221515 16 244 3.2 20.9 0.00 0.00 0.00 32 1014.8
20260506220014 16 215 8.0 19.3 0.00 0.00 0.00 24 1015.1
20260506214513 17 227 3.2 12.9 0.00 0.00 0.00 26 1015.2
20260506213019 16 257 3.2 12.9 0.00 0.00 0.00 30 1015.2
20260506211515 16 241 9.7 20.9 0.00 0.00 0.00 27 1015.5
20260506210012 16 247 3.2 14.5 0.00 0.00 0.00 29 1015.6
20260506204507 15 224 3.2 12.9 0.00 0.00 0.00 27 1015.8
20260506203006 16 254 4.8 25.7 0.00 0.00 0.00 36 1016.2
20260506201505 15 326 4.8 14.5 0.00 0.00 0.00 30 1016.3
20260506200008 14 256 4.8 14.5 0.00 0.00 0.00 35 1016.4
20260506194503 15 318 4.8 11.3 0.00 0.00 0.00 29 1016.5
20260506193002 15 243 3.2 16.1 0.00 0.00 0.00 35 1016.5
20260506191503 15 248 4.8 14.5 0.00 0.00 0.00 32 1016.9
20260506190100 15 240 3.2 16.1 0.00 0.00 0.00 35 1016.8
20260506184602 15 301 4.8 16.1 0.00 0.00 0.00 29 1017.0
20260506183105 14 260 4.8 16.1 0.00 0.00 0.00 32 1017.2
20260506181600 14 29 4.8 16.1 0.00 0.00 0.00 30 1017.2
20260506180055 13 224 3.2 14.5 0.00 0.00 0.00 35 1017.3
20260506174605 13 304 1.6 16.1 0.00 0.00 0.00 38 1017.7
20260506173055 13 274 3.2 12.9 0.00 0.00 0.00 38 1017.7
20260506171547 12 237 6.4 20.9 0.00 0.00 0.00 41 1017.9
20260506170048 12 310 1.6 9.7 0.00 0.00 0.00 36 1018.1
20260506164548 12 331 3.2 14.5 0.00 0.00 0.00 40 1018.2
20260506163057 12 47 1.6 11.3 0.00 0.00 0.00 37 1018.3
20260506161542 11 245 4.8 16.1 0.00 0.00 0.00 37 1018.4
20260506160041 12 310 1.6 14.5 0.00 0.00 0.00 38 1018.2
20260506154544 12 244 3.2 12.9 0.00 0.00 0.00 39 1018.2
20260506153036 11 7 3.2 14.5 0.00 0.00 0.00 40 1018.1
20260506151541 11 315 4.8 16.1 0.00 0.00 0.00 38 1018.1
20260506150033 11 30 0.0 8.0 0.00 0.00 0.00 45 1018.2
20260506144531 10 187 0.0 11.3 0.00 0.00 0.00 43 1018.2
20260506143028 10 263 0.0 8.0 0.00 0.00 0.00 49 1018.3
20260506141526 10 239 0.0 6.4 0.00 0.00 0.00 48 1018.2
20260506140029 9 277 1.6 6.4 0.00 0.00 0.00 50 1018.1
20260506134520 8 266 0.0 3.2 0.00 0.00 0.00 56 1017.9
20260506133020 7 338 0.0 4.8 0.00 0.00 0.00 61 1017.7
20260506131520 6 265 0.0 4.8 0.00 0.00 0.00 62 1017.7
20260506130021 5 242 0.0 3.2 0.00 0.00 0.00 67 1017.5
20260506124517 3 41 0.0 0.0 0.00 0.00 0.00 76 1017.4
20260506123013 3 42 0.0 0.0 0.00 0.00 0.00 74 1017.0
20260506121510 2 41 0.0 0.0 0.00 0.00 0.00 75 1016.8
20260506120012 0 41 0.0 0.0 0.00 0.00 0.00 78 1016.6
20260506114506 0 41 0.0 0.0 0.00 0.00 0.00 76 1016.4
20260506113004 1 41 0.0 0.0 0.00 0.00 0.00 75 1016.2
20260506111501 1 41 0.0 0.0 0.00 0.00 0.00 73 1016.2
20260506110105 1 42 0.0 0.0 0.00 0.00 0.00 72 1016.0
20260506110002 1 41 0.0 0.0 0.00 0.00 0.00 72 1016.0
20260506104608 1 42 0.0 1.6 0.00 0.00 0.00 73 1016.1